Find Starlink 5430

NORAD ID: 54803 Int'l Des: 2022-175 Owner: SPXS Country: US Constellation: starlink operational
LEOCIRCULAR

Live-Position

3D-Globus wird geladen...

Über Starlink 5430

Beschreibung wird geladen...

Nächste Überflüge

Passes for default location (London). Set your location on the main map for personalized predictions.

Höhenverlauf

Loading altitude history...

Zweizeiliger Elementsatz

1 54803U 22175AX 26107.30823176 .00000027 00000-0 19776-4 0 9996
2 54803 53.2153 230.4182 0001236 87.2969 272.8165 15.08836891185750
Epoch: 17. Apr. 2026 • Age: 12 hours

Aktueller Status

Höhe 542.4 km
Geschwindigkeit 7.60 km/s
Subsatellitenpunkt 38.56°N, 120.48°W
Startdatum 17. Dez. 2022
Alter 3.3 years
Typ internet

Technische Details

Klassifizierung Payload
Masse 305.00 kg
Trockenmasse 290.00 kg
Gesamtmasse 305.00 kg
Länge 0.20 m
Durchmesser 2.80 m
Spannweite 9.00 m
Form Box + pan
Hersteller SPXS
Bus-Typ Starlink
Phasenstatus In Orbit
Besitzer/Staat SPXS/US

Most Searched